GW6830 Weather Reports


time (UTC)temp
F
wind
direction
speed
knots
gust
knots
rain 1hr
in
rain 24hr
in
rain mn
in
humidity
%
barometer
mb
20260505183551 56 135 2.6 8.7 0.00 0.00 0.00 99 1006.8
20260505183050 56 139 4.3 7.8 0.00 0.00 0.00 99 1006.9
20260505182552 57 145 2.6 7.0 0.00 0.00 0.00 99 1007.3
20260505182052 57 157 2.6 8.7 0.00 0.00 0.00 99 1007.1
20260505181549 57 52 0.9 5.2 0.00 0.00 0.00 99 1007.1
20260505181054 57 107 0.9 4.3 0.00 0.00 0.00 99 1007.1
20260505180553 57 138 2.6 7.8 0.00 0.00 0.00 99 1007.1
20260505180052 58 137 4.3 7.8 0.00 0.00 0.00 99 1007.0
20260505175551 58 33 1.7 4.3 0.00 0.00 0.00 99 1007.1
20260505175050 59 58 1.7 5.2 0.00 0.00 0.00 99 1007.0
20260505174552 59 71 0.9 7.8 0.00 0.00 0.00 99 1006.8
20260505174050 59 119 1.7 7.0 0.00 0.00 0.00 99 1006.8
20260505173551 60 127 1.7 5.2 0.00 0.00 0.00 99 1006.8
20260505173056 60 90 0.0 5.2 0.00 0.00 0.00 99 1006.8
20260505172549 60 120 1.7 4.3 0.00 0.00 0.00 99 1006.7
20260505172049 60 130 1.7 4.3 0.00 0.00 0.00 99 1006.7
20260505171551 60 142 1.7 5.2 0.00 0.00 0.00 99 1006.8
20260505171051 60 126 1.7 7.0 0.00 0.00 0.00 99 1007.0
20260505170550 60 158 3.5 5.2 0.00 0.00 0.00 99 1006.9
20260505170050 61 145 1.7 3.5 0.00 0.00 0.00 99 1007.0
20260505165551 61 54 0.0 2.6 0.00 0.00 0.00 99 1006.9
20260505165053 62 45 0.9 3.5 0.00 0.00 0.00 99 1006.7
20260505164551 62 135 1.7 4.3 0.00 0.00 0.00 99 1006.7
20260505164052 62 132 1.7 5.2 0.00 0.00 0.00 99 1006.7
20260505163552 62 151 1.7 5.2 0.00 0.00 0.00 99 1006.7
20260505163052 62 147 1.7 4.3 0.00 0.00 0.00 99 1006.6
20260505162549 62 145 2.6 5.2 0.00 0.00 0.00 99 1006.6
20260505162052 62 147 1.7 6.1 0.00 0.00 0.00 99 1006.6
20260505161552 62 176 1.7 5.2 0.00 0.00 0.00 99 1006.6
20260505161053 63 167 2.6 5.2 0.00 0.00 0.00 99 1006.5
20260505160552 63 149 2.6 6.1 0.00 0.00 0.00 99 1006.5
20260505153052 64 160 1.7 5.2 0.00 0.00 0.00 99 1006.1
20260505152554 64 152 2.6 6.1 0.00 0.00 0.00 98 1006.1
20260505152052 64 187 2.6 6.1 0.00 0.00 0.00 97 1006.2
20260505151551 64 183 3.5 7.0 0.00 0.00 0.00 98 1006.5
20260505151052 63 146 2.6 7.0 0.00 0.00 0.00 100 1006.4
20260505150550 63 114 1.7 7.8 0.00 0.00 0.00 100 1006.5
20260505140551 61 128 0.0 2.6 0.00 0.00 0.00 99 1007.1
20260505124551 60 164 0.9 1.7 0.00 0.00 0.00 99 1006.5
20260505124052 60 273 0.9 1.7 0.00 0.00 0.00 99 1006.4
20260505123551 60 169 0.9 3.5 0.00 0.00 0.00 99 1006.2
20260505123051 60 148 1.7 3.5 0.00 0.00 0.00 99 1006.3
20260505122550 60 115 0.9 3.5 0.00 0.00 0.00 99 1006.2
20260505122049 59 138 2.6 3.5 0.00 0.00 0.00 99 1006.1
20260505121551 59 63 0.9 1.7 0.00 0.00 0.00 99 1006.3
20260505121052 59 45 0.9 4.3 0.00 0.00 0.00 99 1006.3
20260505120551 59 134 2.6 4.3 0.00 0.00 0.00 99 1006.1
20260505120051 59 132 2.6 2.6 0.00 0.00 0.00 99 1005.9
20260505115552 59 28 0.0 1.7 0.00 0.00 0.00 99 1005.4
20260505115051 59 296 0.0 1.7 0.00 0.00 0.00 99 1005.2
20260505114551 59 0 0.0 0.9 0.00 0.00 0.00 99 1005.0
20260505114049 59 0 0.0 1.7 0.00 0.00 0.00 99 1005.1
20260505113551 59 335 0.9 1.7 0.00 0.00 0.00 99 1005.1
20260505113050 59 130 0.9 1.7 0.00 0.00 0.00 99 1005.1
20260505112549 59 322 0.9 1.7 0.00 0.00 0.00 99 1005.3
20260505112051 59 348 0.9 2.6 0.00 0.00 0.00 99 1005.4
20260505111551 59 269 1.7 2.6 0.00 0.00 0.00 99 1005.1
20260505111049 59 8 1.7 3.5 0.00 0.00 0.00 99 1005.4
20260505110552 59 56 0.9 1.7 0.00 0.00 0.00 99 1005.1
20260505102049 60 297 1.7 5.2 0.00 0.00 0.00 99 1005.9
20260505101552 60 291 2.6 6.1 0.00 0.00 0.00 99 1006.0
20260505101050 60 326 3.5 6.1 0.00 0.00 0.00 99 1006.0
20260505100550 60 320 1.7 3.5 0.00 0.00 0.00 99 1005.8
20260505100051 60 214 1.7 2.6 0.00 0.00 0.00 99 1005.7
20260505095552 60 340 1.7 5.2 0.00 0.00 0.00 99 1006.2
20260505095052 60 246 2.6 3.5 0.00 0.00 0.00 99 1005.8
20260505094550 60 323 1.7 2.6 0.00 0.00 0.00 99 1006.5
20260505094049 60 300 1.7 2.6 0.00 0.00 0.00 99 1006.3
20260505093550 60 303 0.9 1.7 0.00 0.00 0.00 99 1006.4
20260505093051 60 299 0.9 1.7 0.00 0.00 0.00 99 1006.3
20260505092551 60 226 0.0 2.6 0.00 0.00 0.00 99 1006.5
20260505092051 60 170 1.7 4.3 0.00 0.00 0.00 99 1006.2
20260505091551 60 159 2.6 4.3 0.00 0.00 0.00 99 1006.2
20260505091052 60 41 0.0 3.5 0.00 0.00 0.00 99 1006.2
20260505090549 60 178 2.6 3.5 0.00 0.00 0.00 99 1006.1
20260505090051 60 60 0.0 1.7 0.00 0.00 0.00 99 1007.2
20260505085550 60 115 0.0 1.7 0.00 0.00 0.00 99 1006.5
20260505085051 60 44 1.7 2.6 0.00 0.00 0.00 99 1006.4
20260505084549 60 214 1.7 3.5 0.00 0.00 0.00 99 1005.8
20260505084050 60 336 0.9 1.7 0.00 0.00 0.00 99 1006.5
20260505083549 60 0 0.0 1.7 0.00 0.00 0.00 99 1006.6
20260505083049 60 334 0.0 1.7 0.00 0.00 0.00 99 1006.6
20260505082551 60 295 0.9 1.7 0.00 0.00 0.00 99 1006.7
20260505082053 60 0 0.0 0.9 0.00 0.00 0.00 99 1006.9
20260505081553 60 40 0.0 2.6 0.00 0.00 0.00 99 1006.6
20260505081049 60 46 0.0 3.5 0.00 0.00 0.00 99 1006.6
20260505080551 60 10 2.6 4.3 0.00 0.00 0.00 99 1007.1
20260505080049 60 354 3.5 4.3 0.00 0.00 0.00 99 1007.3
20260505075551 60 7 1.7 2.6 0.00 0.00 0.00 99 1007.1
20260505075049 60 0 0.0 0.0 0.00 0.00 0.00 99 1006.8
20260505074551 60 0 0.0 2.6 0.00 0.00 0.00 99 1007.1
20260505074053 60 329 0.9 1.7 0.00 0.00 0.00 99 1007.1
20260505073550 60 320 0.9 1.7 0.00 0.00 0.00 99 1006.9
20260505073051 60 4 0.9 3.5 0.00 0.00 0.00 99 1006.7
20260505072549 60 37 1.7 3.5 0.00 0.00 0.00 100 1007.0
20260505072051 60 334 1.7 2.6 0.00 0.00 0.00 100 1006.7
20260505071551 60 339 0.9 2.6 0.00 0.00 0.00 100 1006.7
20260505071051 61 31 0.0 2.6 0.00 0.00 0.00 99 1006.7
20260505070551 62 35 0.9 1.7 0.00 0.00 0.00 96 1006.8
20260505070050 62 0 0.0 0.0 0.00 0.00 0.00 94 1006.2
20260505065550 63 0 0.0 2.6 0.00 0.00 0.00 91 1006.1
20260505065052 63 21 0.9 2.6 0.00 0.00 0.00 87 1006.2
20260505064552 64 320 1.7 3.5 0.00 0.00 0.00 84 1006.2
20260505064049 64 347 0.9 2.6 0.00 0.00 0.00 82 1006.3
20260505063551 64 330 1.7 3.5 0.00 0.00 0.00 81 1006.3
20260505063052 65 348 1.7 2.6 0.00 0.00 0.00 79 1006.4
20260505062551 65 359 1.7 4.3 0.00 0.00 0.00 79 1006.5
20260505062050 65 327 1.7 4.3 0.00 0.00 0.00 78 1006.4
20260505061552 65 315 1.7 3.5 0.00 0.00 0.00 77 1006.5
20260505061049 65 338 0.9 3.5 0.00 0.00 0.00 77 1006.6
20260505060551 66 322 0.9 3.5 0.00 0.00 0.00 76 1006.6
20260505060051 66 338 0.9 3.5 0.00 0.00 0.00 75 1006.8
20260505055550 66 330 1.7 3.5 0.00 0.00 0.00 75 1006.7
20260505055049 66 331 0.9 3.5 0.00 0.00 0.00 75 1006.7
20260505054550 66 304 1.7 3.5 0.00 0.00 0.00 74 1006.7
20260505054050 66 310 1.7 3.5 0.00 0.00 0.00 74 1006.7
20260505053549 66 277 0.0 3.5 0.00 0.00 0.00 75 1006.7
20260505053049 66 277 1.7 7.0 0.00 0.00 0.00 74 1006.5
20260505052549 66 252 1.7 4.3 0.00 0.00 0.00 74 1006.3
20260505052049 66 231 0.9 2.6 0.00 0.00 0.00 75 1006.1
20260505051550 66 231 0.9 5.2 0.00 0.00 0.00 74 1006.2
20260505051050 66 302 0.9 4.3 0.00 0.00 0.00 75 1006.3
20260505050549 66 336 0.9 5.2 0.00 0.00 0.00 74 1006.5
20260505041550 67 314 1.7 6.1 0.00 0.00 0.00 72 1006.9
20260505041049 67 265 1.7 6.1 0.00 0.00 0.00 72 1007.1
20260505040551 67 303 0.9 2.6 0.00 0.00 0.00 72 1007.1
20260505040052 67 0 0.9 5.2 0.00 0.00 0.00 71 1007.2
20260505035551 67 297 0.9 3.5 0.00 0.00 0.00 71 1007.2
20260505035049 67 327 0.9 5.2 0.00 0.00 0.00 71 1007.2
20260505034549 67 248 2.6 4.3 0.00 0.00 0.00 71 1007.2
20260505034049 67 350 0.9 6.1 0.00 0.00 0.00 70 1007.3
20260505033550 68 340 1.7 5.2 0.00 0.00 0.00 70 1007.3
20260505033049 68 255 2.6 5.2 0.00 0.00 0.00 69 1007.3
20260505032549 68 233 1.7 4.3 0.00 0.00 0.00 69 1007.4
20260505032050 67 284 1.7 3.5 0.00 0.00 0.00 70 1007.5
20260505031549 67 253 1.7 3.5 0.00 0.00 0.00 70 1007.5
20260505031049 67 259 0.9 3.5 0.00 0.00 0.00 70 1007.5
20260505030551 67 317 0.0 2.6 0.00 0.00 0.00 71 1007.4
20260505030050 67 4 0.0 1.7 0.00 0.00 0.00 71 1007.4
20260505025549 67 225 0.0 2.6 0.00 0.00 0.00 71 1007.4
20260505025049 66 55 0.0 2.6 0.00 0.00 0.00 71 1007.4
20260505024550 66 231 0.0 1.7 0.00 0.00 0.00 73 1007.4
20260505024049 66 255 0.9 1.7 0.00 0.00 0.00 73 1007.3
20260505023550 66 270 0.0 1.7 0.00 0.00 0.00 73 1007.4
20260505023049 67 0 0.0 0.9 0.00 0.00 0.00 73 1007.4
20260505022549 67 0 0.0 1.7 0.00 0.00 0.00 72 1007.3
20260505022049 67 237 0.9 1.7 0.00 0.00 0.00 72 1007.1
20260505021551 68 274 0.0 1.7 0.00 0.00 0.00 71 1007.0
20260505021049 68 118 0.0 1.7 0.00 0.00 0.00 70 1006.9
20260505020549 68 340 0.0 1.7 0.00 0.00 0.00 69 1006.8
20260505020051 68 335 0.0 2.6 0.00 0.00 0.00 68 1006.7
20260505015549 69 339 1.7 2.6 0.00 0.00 0.00 67 1006.7
20260505015050 69 346 0.9 1.7 0.00 0.00 0.00 68 1006.6
20260505014550 69 0 0.0 0.9 0.00 0.00 0.00 66 1006.5
20260505014050 70 0 0.0 1.7 0.00 0.00 0.00 65 1006.5
20260505013549 70 347 0.9 2.6 0.00 0.00 0.00 64 1006.4
20260505013051 71 354 0.9 6.1 0.00 0.00 0.00 63 1006.4
20260505012549 71 0 1.7 6.1 0.00 0.00 0.00 63 1006.3
20260505012049 71 326 3.5 6.1 0.00 0.00 0.00 62 1006.2
20260505011552 71 323 1.7 6.1 0.00 0.00 0.00 61 1006.2
20260505011049 72 318 2.6 7.0 0.00 0.00 0.00 61 1006.2
20260505010551 72 315 4.3 9.6 0.00 0.00 0.00 60 1006.1
20260505010050 72 315 4.3 12.2 0.00 0.00 0.00 60 1006.0
20260505005549 72 313 5.2 8.7 0.00 0.00 0.00 60 1006.0
20260505005049 72 330 5.2 7.8 0.00 0.00 0.00 60 1006.0
20260505004549 73 329 3.5 7.8 0.00 0.00 0.00 60 1005.9
20260505004049 73 324 3.5 7.0 0.00 0.00 0.00 61 1005.9
20260505003550 73 320 4.3 7.8 0.00 0.00 0.00 60 1005.8
20260505003049 73 334 3.5 5.2 0.00 0.00 0.00 60 1005.7
20260505002549 74 323 2.6 5.2 0.00 0.00 0.00 60 1005.7
20260505002049 74 322 2.6 6.1 0.00 0.00 0.00 59 1005.6
20260505001550 74 309 2.6 4.3 0.00 0.00 0.00 59 1005.6
20260505001049 74 325 3.5 7.8 0.00 0.00 0.00 58 1005.6
20260505000549 75 318 4.3 7.8 0.00 0.00 0.00 58 1005.6
20260505000052 75 295 1.7 6.1 0.00 0.00 0.00 58 1005.6
20260504235549 75 341 1.7 7.0 0.00 0.00 0.00 58 1005.7
20260504235049 76 319 3.5 7.0 0.00 0.00 0.00 56 1005.6
20260504234549 76 240 1.7 7.8 0.00 0.00 0.00 57 1005.6
20260504234050 76 327 4.3 7.8 0.00 0.00 0.00 56 1005.4
20260504233551 76 330 1.7 7.0 0.00 0.00 0.00 55 1005.6
20260504233049 77 286 1.7 7.8 0.00 0.00 0.00 54 1005.6
20260504232549 77 315 3.5 7.0 0.00 0.00 0.00 54 1005.6
20260504232050 77 335 5.2 7.8 0.00 0.00 0.00 52 1005.6
20260504231552 77 263 1.7 5.2 0.00 0.00 0.00 53 1005.6
20260504231051 77 350 1.7 7.0 0.00 0.00 0.00 53 1005.6
20260504230549 77 343 4.3 7.0 0.00 0.00 0.00 52 1005.6
20260504230050 77 328 3.5 8.7 0.00 0.00 0.00 53 1005.7
20260504225550 77 352 4.3 7.8 0.00 0.00 0.00 53 1005.7
20260504225051 77 339 4.3 9.6 0.00 0.00 0.00 52 1005.7
20260504224549 78 330 3.5 7.8 0.00 0.00 0.00 51 1005.7
20260504224049 78 319 4.3 8.7 0.00 0.00 0.00 51 1005.7
20260504223550 78 320 3.5 7.8 0.00 0.00 0.00 51 1005.6
20260504223050 78 345 5.2 7.8 0.00 0.00 0.00 50 1005.9
20260504222551 78 343 2.6 8.7 0.00 0.00 0.00 50 1006.0
20260504222049 78 331 4.3 8.7 0.00 0.00 0.00 49 1005.9
20260504221551 79 327 5.2 10.4 0.00 0.00 0.00 49 1006.0
20260504221051 79 358 3.5 8.7 0.00 0.00 0.00 49 1006.1
20260504220549 79 324 5.2 9.6 0.00 0.00 0.00 48 1006.1
20260504220052 80 338 5.2 13.0 0.00 0.00 0.00 48 1006.1
20260504215551 80 325 4.3 8.7 0.00 0.00 0.00 47 1006.1
20260504215049 80 340 4.3 9.6 0.00 0.00 0.00 47 1006.1
20260504214550 80 331 4.3 8.7 0.00 0.00 0.00 47 1006.1
20260504214049 80 352 3.5 9.6 0.00 0.00 0.00 46 1006.0
20260504213549 80 344 3.5 10.4 0.00 0.00 0.00 47 1006.2
20260504213051 80 343 5.2 11.3 0.00 0.00 0.00 46 1006.2
20260504212550 80 320 6.1 10.4 0.00 0.00 0.00 47 1006.1
20260504212052 80 327 5.2 12.2 0.00 0.00 0.00 46 1006.1
20260504211552 80 339 5.2 9.6 0.00 0.00 0.00 46 1006.1
20260504211049 80 341 5.2 9.6 0.00 0.00 0.00 46 1006.2
20260504210552 80 324 6.1 11.3 0.00 0.00 0.00 46 1006.3
20260504210051 80 334 3.5 9.6 0.00 0.00 0.00 46 1006.3
20260504205550 80 318 5.2 10.4 0.00 0.00 0.00 47 1006.4
20260504205051 80 333 2.6 9.6 0.00 0.00 0.00 48 1006.4
20260504204552 81 333 3.5 9.6 0.00 0.00 0.00 47 1006.5
20260504204049 81 340 5.2 9.6 0.00 0.00 0.00 46 1006.5
20260504203551 81 316 6.1 9.6 0.00 0.00 0.00 47 1006.5
20260504203051 80 355 4.3 9.6 0.00 0.00 0.00 48 1006.6
20260504202550 80 331 3.5 8.7 0.00 0.00 0.00 47 1006.7
20260504202049 80 346 5.2 11.3 0.00 0.00 0.00 47 1006.8
20260504201550 80 331 6.1 10.4 0.00 0.00 0.00 47 1006.7
20260504201051 80 327 4.3 11.3 0.00 0.00 0.00 47 1006.9
20260504200551 80 327 4.3 9.6 0.00 0.00 0.00 48 1006.9
20260504200050 80 320 3.5 8.7 0.00 0.00 0.00 48 1006.9
20260504195549 80 314 7.0 10.4 0.00 0.00 0.00 47 1006.9
20260504195050 80 341 7.0 11.3 0.00 0.00 0.00 46 1006.9
20260504194549 80 308 5.2 9.6 0.00 0.00 0.00 47 1007.1
20260504194049 80 334 6.1 10.4 0.00 0.00 0.00 48 1007.1
20260504193549 80 334 2.6 10.4 0.00 0.00 0.00 50 1007.2
20260504193049 80 9 6.1 13.0 0.00 0.00 0.00 48 1007.2
20260504192551 80 334 5.2 9.6 0.00 0.00 0.00 49 1007.3
20260504192051 80 340 4.3 9.6 0.00 0.00 0.00 49 1007.3
20260504191550 80 324 4.3 11.3 0.00 0.00 0.00 49 1007.3
20260504191049 80 335 7.8 10.4 0.00 0.00 0.00 48 1007.4
20260504190549 79 350 3.5 12.2 0.00 0.00 0.00 50 1007.4
20260504190049 79 305 5.2 8.7 0.00 0.00 0.00 49 1007.4
20260504185551 79 333 5.2 9.6 0.00 0.00 0.00 50 1007.5
20260504185050 79 326 6.1 9.6 0.00 0.00 0.00 49 1007.3
20260504184551 79 341 3.5 12.2 0.00 0.00 0.00 50 1007.5
20260504184051 79 342 7.0 13.0 0.00 0.00 0.00 48 1007.6